Temp
10 10 11 11 10 10 11 10 11 11 11 11 10 10 10 10 10 10 10 10 10 10 10 9 9 11 11 10 10 10 10 10 9 8 7 7 7 7 7 7 8 7 7
9 10 10 11 10 9 10 10 10 10 10 10 10 10 10 10 10 10 10 9 10 8 10 11 10 11 10 10 10 9 9 9 9 8 7 7 7 8 7 6 6 5 5
9 9 10 10 10 9 9 9 10 10 10 10 10 10 10 9 9 10 10 10 10 10 10 10 10 11 10 9 9 9 9 9 7 7 7 7 7 6 5 5 3 2 2
9 9 10 10 9 10 9 10 9 9 9 9 9 10 9 10 9 10 10 10 10 10 9 9 8 9 10 8 8 9 8 8 7 7 7 7 6 5 4 2 2 1 1
9 9 9 9 9 9 9 9 9 9 9 9 9 10 10 10 9 9 9 9 9 8 8 8 7 7 9 7 7 7 7 7 7 7 7 6 5 3 2 1 -0 -1 -1
9 9 9 9 9 9 9 9 9 9 9 9 9 9 9 9 9 9 9 9 8 8 8 7 7 8 8 7 7 7 7 7 7 7 6 5 3 1 -0 -1 -2 -2 -1
8 9 9 9 9 9 9 9 9 9 9 9 9 9 9 9 9 9 9 9 8 8 8 8 8 7 7 7 7 7 7 7 6 5 4 2 0 -2 -2 -2 -2 -2 -3
8 9 9 9 9 8 9 9 9 9 8 9 9 8 8 8 8 8 8 8 8 8 7 7 8 7 7 7 7 7 6 4 3 2 -0 -1 -2 -2 -2 -2 -3 -3 -6
7 8 9 9 9 8 9 9 9 9 8 8 8 8 8 8 8 8 8 8 7 7 6 7 7 7 6 6 6 5 3 1 -3 -3 -3 -3 -3 -3 -4 -3 -4 -5 -6
7 8 9 9 8 8 9 8 8 8 8 8 8 8 8 8 7 7 8 8 7 7 5 5 4 4 3 1 2 1 0 -3 -4 -4 -3 -5 -5 -4 -4 -5 -5 -6 -7
7 8 8 9 8 8 8 9 8 8 8 8 7 7 7 8 7 7 7 8 8 7 5 3 1 0 -1 -2 -2 -2 -1 -3 -4 -5 -5 -5 -5 -6 -6 -6 -7 -8 -9
7 6 8 8 8 8 8 8 8 8 8 7 7 7 6 6 6 6 6 6 6 6 3 -1 -3 -4 -4 -4 -3 -4 -4 -5 -6 -5 -5 -6 -7 -7 -8 -9 -9 -10 -10
3 6 7 8 8 7 8 8 7 7 7 7 6 6 4 3 3 3 4 5 3 3 -1 -4 -5 -5 -5 -5 -5 -6 -8 -6 -6 -6 -7 -8 -8 -9 -9 -10 -10 -10 -10
3 3 4 5 7 7 7 7 7 6 6 6 5 5 3 0 -0 -1 -0 -1 -2 -2 -4 -4 -4 -5 -5 -6 -8 -7 -6 -7 -7 -7 -8 -9 -10 -10 -10 -10 -10 -10 -12
0 -0 1 2 3 1 2 3 5 3 4 3 2 2 0 -2 -4 -3 -2 -2 -2 -2 -3 -5 -7 -6 -7 -8 -8 -8 -8 -8 -8 -9 -9 -10 -10 -10 -10 -10 -11 -11 -12
-1 -0 1 -0 -0 0 -1 -1 -0 1 2 -0 -1 -2 -2 -3 -3 -4 -4 -3 -4 -5 -5 -6 -8 -9 -9 -8 -8 -8 -9 -9 -10 -10 -10 -10 -11 -11 -11 -11 -12 -12 -13
-2 -2 -1 -1 -2 -2 -1 -3 -4 -4 -2 -3 -2 -4 -3 -4 -5 -6 -6 -5 -6 -5 -5 -6 -7 -8 -8 -9 -9 -9 -10 -10 -11 -11 -11 -11 -11 -12 -12 -12 -13 -13 -13
-4 -4 -3 -4 -3 -5 -3 -5 -8 -7 -8 -9 -7 -6 -7 -6 -6 -6 -6 -7 -8 -7 -6 -7 -8 -9 -9 -9 -10 -10 -11 -11 -11 -11 -12 -12 -12 -12 -12 -13 -13 -13 -13
-5 -5 -6 -6 -6 -8 -7 -8 -8 -8 -9 -10 -10 -9 -9 -8 -7 -8 -9 -8 -8 -8 -8 -9 -9 -9 -9 -10 -10 -11 -11 -11 -12 -12 -12 -12 -13 -13 -13 -13 -13 -13 -14
-7 -7 -7 -7 -8 -8 -9 -9 -10 -10 -11 -11 -11 -10 -9 -9 -9 -9 -9 -9 -9 -9 -9 -9 -10 -10 -10 -11 -11 -12 -12 -12 -13 -13 -13 -13 -13 -13 -13 -13 -14 -15 -17
-8 -8 -8 -8 -8 -8 -8 -8 -9 -9 -10 -10 -11 -11 -10 -9 -9 -10 -9 -9 -9 -10 -10 -10 -11 -11 -11 -12 -12 -13 -13 -13 -13 -14 -14 -14 -14 -14 -14 -14 -16 -16 -16
-9 -9 -9 -9 -9 -9 -9 -9 -9 -9 -9 -10 -9 -9 -9 -9 -9 -9 -10 -10 -10 -10 -11 -11 -11 -12 -12 -13 -13 -13 -14 -14 -14 -14 -14 -14 -15 -15 -15 -15 -15 -15 -17
-8 -8 -8 -9 -8 -9 -9 -9 -9 -10 -9 -9 -9 -10 -10 -10 -10 -10 -10 -10 -11 -11 -11 -12 -12 -12 -13 -13 -14 -14 -14 -14 -14 -15 -15 -15 -15 -15 -15 -16 -16 -16 -16
-8 -8 -8 -8 -9 -9 -9 -10 -10 -9 -9 -9 -10 -10 -10 -10 -10 -10 -11 -11 -12 -12 -12 -12 -13 -13 -14 -14 -14 -14 -14 -15 -15 -15 -16 -16 -16 -16 -16 -16 -16 -16 -15
-8 -8 -8 -9 -8 -8 -8 -9 -9 -9 -10 -10 -10 -11 -11 -11 -11 -11 -12 -12 -12 -12 -13 -14 -14 -14 -14 -14 -15 -15 -15 -15 -16 -16 -16 -16 -16 -16 -16 -16 -16 -16 -16
-8 -9 -9 -9 -9 -9 -9 -10 -10 -11 -11 -11 -11 -12 -12 -12 -12 -12 -12 -13 -13 -14 -14 -14 -14 -14 -15 -15 -15 -15 -16 -16 -16 -16 -16 -16 -17 -17 -17 -17 -17 -16 -16
Height
1389 1391 1394 1398 1402 1404 1405 1409 1413 1417 1421 1424 1426 1429 1431 1436 1442 1447 1452 1457 1464 1470 1475 1481 1486 1491 1497 1502 1508 1512 1515 1520 1526 1530 1531 1533 1532 1531 1533 1532 1531 1531 1529
1385 1387 1391 1395 1399 1401 1402 1404 1409 1412 1417 1420 1424 1426 1427 1431 1435 1440 1447 1451 1456 1462 1467 1474 1478 1484 1491 1496 1501 1506 1511 1517 1521 1523 1523 1524 1524 1525 1526 1526 1524 1523 1522
1380 1384 1387 1391 1395 1397 1400 1401 1405 1408 1412 1415 1418 1421 1425 1428 1430 1430 1437 1443 1448 1454 1460 1465 1470 1477 1484 1490 1495 1499 1503 1509 1513 1517 1514 1516 1517 1518 1519 1518 1518 1518 1517
1376 1379 1382 1386 1390 1394 1396 1397 1401 1404 1408 1411 1413 1416 1418 1420 1421 1423 1425 1434 1440 1446 1451 1456 1461 1470 1477 1481 1488 1492 1497 1501 1505 1507 1508 1508 1510 1511 1512 1512 1513 1513 1513
1372 1375 1378 1382 1386 1390 1392 1394 1398 1402 1406 1408 1410 1412 1413 1414 1414 1414 1418 1423 1432 1436 1440 1447 1455 1463 1470 1476 1481 1485 1491 1494 1497 1500 1501 1502 1503 1505 1506 1507 1508 1509 1507
1368 1371 1375 1378 1382 1386 1388 1392 1396 1400 1403 1405 1407 1409 1409 1410 1412 1413 1417 1420 1425 1431 1435 1442 1448 1457 1464 1470 1477 1481 1484 1487 1490 1493 1495 1496 1498 1500 1503 1504 1505 1506 1505
1364 1366 1370 1375 1378 1382 1385 1389 1394 1397 1401 1403 1406 1407 1408 1409 1411 1414 1417 1421 1424 1431 1435 1440 1446 1454 1461 1467 1472 1476 1479 1483 1486 1488 1490 1493 1496 1498 1501 1502 1502 1502 1501
1359 1362 1366 1370 1374 1380 1381 1386 1390 1394 1398 1402 1404 1406 1408 1409 1411 1414 1416 1420 1425 1431 1437 1440 1446 1453 1459 1464 1468 1471 1475 1479 1483 1485 1488 1491 1495 1497 1500 1500 1501 1500 1500
1354 1356 1360 1364 1370 1375 1377 1382 1387 1391 1396 1400 1403 1405 1408 1409 1412 1415 1418 1423 1429 1434 1439 1442 1447 1452 1457 1462 1466 1468 1472 1476 1481 1487 1489 1492 1496 1497 1498 1498 1499 1499 1498
1348 1351 1355 1360 1366 1371 1375 1379 1383 1388 1393 1398 1402 1405 1408 1410 1414 1418 1421 1425 1429 1433 1438 1442 1447 1451 1455 1460 1464 1468 1471 1477 1482 1485 1488 1492 1495 1496 1496 1496 1496 1496 1494
1344 1345 1349 1354 1360 1367 1372 1376 1380 1384 1390 1395 1399 1403 1406 1410 1413 1417 1421 1425 1428 1432 1436 1441 1446 1452 1456 1461 1466 1470 1474 1477 1481 1486 1488 1490 1491 1494 1495 1495 1495 1494 1495
1339 1341 1343 1349 1356 1362 1367 1372 1377 1381 1386 1392 1396 1400 1404 1408 1412 1416 1419 1423 1426 1429 1433 1440 1447 1453 1457 1462 1467 1470 1474 1478 1482 1486 1489 1490 1490 1492 1493 1494 1495 1493 1490
1336 1339 1340 1345 1351 1357 1362 1368 1373 1378 1384 1389 1394 1398 1401 1406 1410 1415 1417 1421 1425 1428 1433 1440 1449 1457 1461 1465 1469 1472 1475 1478 1481 1483 1486 1491 1492 1492 1493 1494 1493 1490 1489
1343 1342 1344 1341 1345 1354 1358 1364 1370 1376 1381 1385 1390 1394 1398 1403 1408 1414 1417 1422 1428 1432 1438 1444 1450 1456 1462 1465 1470 1475 1478 1480 1482 1486 1488 1491 1491 1492 1493 1492 1492 1490 1487
1345 1347 1344 1345 1345 1351 1356 1362 1366 1373 1378 1382 1387 1391 1396 1401 1408 1413 1417 1422 1429 1437 1441 1448 1455 1458 1462 1466 1471 1475 1480 1482 1485 1486 1488 1491 1491 1492 1493 1492 1491 1490 1487
1352 1352 1348 1349 1355 1358 1359 1365 1375 1380 1383 1391 1394 1400 1399 1408 1412 1421 1424 1427 1433 1441 1446 1449 1455 1461 1464 1468 1473 1477 1481 1484 1486 1489 1490 1492 1492 1493 1493 1492 1490 1488 1486
1356 1356 1355 1358 1360 1365 1368 1370 1371 1382 1386 1397 1401 1410 1408 1412 1420 1427 1429 1431 1438 1445 1448 1452 1459 1464 1466 1471 1475 1479 1482 1486 1489 1491 1491 1492 1493 1493 1493 1491 1489 1486 1485
1362 1361 1362 1367 1368 1373 1371 1373 1382 1381 1390 1401 1409 1413 1419 1425 1430 1434 1436 1439 1445 1450 1453 1456 1461 1467 1469 1474 1477 1480 1484 1487 1489 1491 1491 1492 1493 1492 1492 1491 1488 1486 1484
1369 1368 1371 1373 1373 1376 1375 1378 1381 1389 1394 1406 1413 1418 1426 1430 1435 1437 1441 1446 1449 1453 1457 1460 1464 1467 1470 1477 1481 1483 1485 1486 1489 1490 1491 1491 1492 1491 1490 1488 1488 1486 1483
1375 1377 1380 1380 1379 1381 1384 1386 1393 1400 1407 1413 1420 1424 1431 1435 1439 1443 1446 1450 1453 1456 1460 1464 1466 1470 1474 1478 1482 1485 1487 1488 1489 1490 1491 1491 1491 1490 1489 1488 1486 1484 1482
1384 1385 1387 1388 1390 1391 1396 1399 1406 1410 1414 1419 1424 1429 1435 1440 1443 1447 1450 1452 1456 1459 1463 1466 1469 1470 1475 1480 1484 1486 1487 1487 1488 1490 1490 1489 1490 1490 1488 1486 1485 1483 1481
1390 1392 1396 1398 1401 1404 1407 1411 1415 1418 1422 1425 1431 1434 1440 1444 1446 1449 1453 1455 1458 1462 1465 1468 1471 1471 1477 1482 1484 1486 1487 1487 1487 1488 1489 1489 1489 1487 1486 1485 1484 1482 1479
1399 1400 1403 1406 1409 1412 1415 1419 1421 1424 1428 1432 1435 1438 1444 1447 1450 1453 1455 1458 1461 1464 1466 1467 1472 1475 1479 1481 1483 1485 1485 1486 1487 1486 1487 1488 1486 1486 1484 1483 1482 1480 1478
1408 1410 1411 1415 1418 1419 1422 1424 1427 1430 1433 1436 1439 1443 1447 1451 1453 1455 1458 1460 1462 1464 1466 1470 1477 1477 1478 1480 1482 1483 1484 1485 1485 1485 1485 1485 1484 1483 1482 1480 1480 1478 1476
1416 1418 1419 1420 1423 1425 1426 1429 1431 1434 1437 1440 1444 1447 1449 1453 1455 1457 1459 1461 1463 1465 1468 1475 1476 1477 1477 1479 1480 1480 1482 1483 1483 1482 1482 1482 1481 1481 1479 1478 1477 1476 1474
1420 1421 1423 1424 1426 1428 1429 1431 1435 1439 1441 1444 1447 1450 1452 1455 1456 1458 1461 1463 1465 1469 1473 1474 1474 1476 1477 1477 1478 1479 1479 1480 1480 1479 1479 1478 1477 1477 1476 1475 1474 1473 1472
Wind_Speed
21 25 30 26 22 22 26 23 22 21 20 21 27 26 34 34 37 43 44 39 42 44 45 43 41 46 41 39 33 30 30 28 25 24 25 24 21 22 26 24 27 28 29
19 21 27 24 21 21 24 23 23 20 20 23 27 27 29 31 35 44 45 45 45 41 44 46 46 45 40 40 36 33 34 31 32 28 31 30 28 31 24 24 24 25 23
20 22 27 25 21 21 21 22 20 17 19 21 24 25 27 28 33 41 46 49 54 53 44 46 49 47 42 40 40 40 38 40 42 37 28 26 24 23 22 22 20 19 17
23 25 28 24 22 21 20 20 17 14 12 14 17 17 17 18 20 35 52 56 53 53 57 47 49 45 35 48 45 44 43 43 35 31 32 33 26 23 21 19 18 16 15
25 27 28 24 23 21 22 20 17 13 10 12 12 12 11 10 11 24 46 47 43 47 48 43 44 48 35 44 45 46 38 38 32 33 27 24 23 20 18 15 12 10 9
28 29 25 23 24 23 24 21 18 15 11 11 9 8 9 5 8 18 33 41 40 41 45 43 40 39 41 36 37 38 38 32 31 25 25 24 19 13 10 7 5 6 8
21 27 29 22 22 24 26 24 21 17 14 13 12 8 7 6 3 17 20 27 35 33 34 36 34 34 35 37 35 30 26 26 24 20 19 15 12 8 4 0 3 6 8
19 27 32 26 23 23 27 27 23 19 17 15 14 12 10 9 6 8 17 24 30 30 33 34 31 29 26 28 27 27 22 19 16 15 14 13 9 6 4 3 6 7 8
19 28 34 30 27 29 31 29 25 22 20 18 17 15 13 14 11 11 24 28 26 29 29 25 24 21 21 20 20 19 19 19 19 15 13 12 7 4 5 5 4 5 6
11 27 32 32 31 34 31 31 28 24 22 20 20 18 17 17 18 20 21 27 29 28 25 24 21 21 21 18 14 17 20 21 19 17 12 9 8 5 3 4 7 8 9
12 24 33 34 34 31 32 31 29 27 27 25 24 23 20 21 22 23 23 22 23 29 29 26 24 23 24 24 21 20 20 20 15 13 12 10 8 7 7 9 11 12 11
11 17 34 35 33 31 34 34 32 30 32 31 29 28 26 26 26 26 27 27 29 28 32 31 31 30 29 27 23 20 19 18 16 14 12 11 11 11 11 12 12 12 11
7 8 28 33 30 31 36 37 38 36 34 35 34 32 30 27 28 30 31 31 32 33 33 34 34 30 28 24 21 20 20 18 17 16 14 13 13 12 11 10 12 13 11
3 7 16 26 34 36 39 41 40 40 40 39 36 35 33 31 29 28 29 30 31 33 36 34 32 28 26 24 23 21 20 18 17 16 15 14 13 11 11 12 12 12 9
3 4 14 17 24 32 38 40 42 40 40 40 37 36 35 34 32 32 32 31 29 31 33 32 31 28 26 26 25 23 20 18 17 17 15 13 11 10 10 12 12 12 10
7 10 11 18 21 24 27 28 21 22 20 20 22 26 28 28 31 33 33 33 33 32 33 32 29 27 26 26 23 21 19 18 17 15 13 11 10 10 10 11 13 13 11
14 17 19 22 29 30 31 33 36 27 24 22 24 27 33 36 35 35 33 33 33 29 25 28 28 27 26 24 21 19 18 16 15 13 11 9 8 8 10 11 13 14 12
14 19 21 24 25 28 31 35 37 41 42 38 35 37 37 34 30 30 29 29 28 26 27 28 27 25 23 21 20 18 17 15 13 10 8 7 6 7 8 9 12 15 13
15 19 24 27 31 34 37 39 42 45 47 44 40 35 31 30 28 26 26 26 27 27 26 26 24 22 21 19 18 16 14 12 10 8 6 5 4 5 6 8 11 14 14
17 19 23 28 32 36 40 44 46 46 43 40 36 32 27 26 27 26 24 25 24 24 23 22 22 20 19 17 15 13 12 10 8 6 4 3 3 4 5 7 9 11 12
18 20 23 27 31 35 37 39 39 40 37 34 29 27 26 25 25 24 24 23 22 22 21 20 19 18 16 14 13 11 10 8 6 4 2 1 3 4 5 7 9 10 12
19 21 25 28 30 32 34 34 33 31 30 30 29 27 24 24 24 23 23 22 21 20 19 18 17 16 14 13 11 9 7 5 4 2 1 2 3 4 6 7 9 11 11
20 22 24 26 27 29 29 28 27 27 28 28 28 26 23 22 22 21 20 20 19 18 17 15 13 12 11 10 9 7 6 5 5 4 4 4 5 5 7 7 9 11 12
20 22 24 26 26 26 25 25 24 24 25 24 24 23 21 21 20 19 18 17 16 14 13 11 11 10 9 7 7 7 6 6 6 6 6 7 7 7 8 8 10 12 13
17 19 20 20 19 20 21 21 22 22 22 22 22 21 20 19 18 17 15 14 13 11 10 10 8 7 6 6 6 6 6 7 8 8 9 9 9 9 9 10 11 12 13
14 15 17 18 19 20 20 21 21 21 21 20 20 19 17 16 15 14 13 12 10 9 9 7 6 5 4 4 5 6 7 8 8 9 9 10 10 11 11 11 12 13 13
Wind_Direction
243 230 220 214 209 212 215 213 221 220 223 227 235 232 221 213 208 201 210 212 216 219 218 216 212 224 223 224 224 217 222 232 244 233 232 239 251 270 272 265 273 271 276
246 226 214 207 202 206 209 211 218 217 229 235 235 233 226 234 224 219 217 215 217 216 221 221 221 225 222 223 224 230 236 251 239 254 236 246 259 264 249 265 259 258 259
250 226 209 204 204 206 203 209 212 215 221 229 232 232 239 236 229 225 224 226 225 226 228 223 221 221 217 223 232 232 236 244 258 252 241 244 228 254 238 246 247 252 262
250 225 206 202 207 202 197 203 206 207 213 219 216 221 228 234 247 241 229 226 227 232 235 223 220 215 222 241 227 236 243 247 252 244 240 234 235 231 235 236 243 256 271
246 225 209 205 201 198 198 196 194 193 210 201 204 225 228 242 269 239 224 217 228 213 207 214 214 217 227 236 236 243 247 247 230 236 231 233 231 222 227 239 248 264 281
235 223 200 203 198 198 195 192 190 191 190 180 178 182 175 179 240 230 217 212 209 210 211 210 213 219 222 233 235 239 232 230 229 234 233 228 215 214 219 237 277 304 311
223 228 204 199 194 196 194 193 190 187 184 185 183 188 176 160 193 217 203 213 207 198 202 201 206 212 220 227 223 216 217 217 225 225 221 202 191 185 176 158 331 338 333
227 222 207 203 200 194 194 194 188 183 184 182 183 180 175 161 157 181 207 192 183 184 191 190 195 191 195 205 211 209 207 207 199 189 177 160 145 125 96 39 1 348 349
240 220 208 206 205 198 194 189 188 183 183 182 181 177 172 163 160 165 190 179 173 164 163 165 181 184 185 196 204 202 184 168 143 135 124 117 108 62 34 14 4 3 351
247 208 214 206 204 203 194 188 186 186 188 184 177 173 176 167 164 172 178 174 167 161 159 160 164 170 171 164 184 174 163 140 133 128 118 106 97 93 54 38 28 25 20
294 208 205 206 203 199 193 191 188 185 187 183 179 169 171 173 173 179 182 186 183 169 164 162 161 162 153 145 145 141 138 133 129 120 115 115 104 82 58 44 36 36 30
296 220 192 203 198 195 194 190 190 190 184 179 179 171 170 173 178 183 187 188 181 179 163 156 148 143 139 135 136 134 131 121 116 122 121 110 95 78 60 45 35 28 23
324 198 186 189 192 193 194 190 182 180 183 175 171 168 167 170 175 183 186 190 179 168 159 150 138 138 141 132 123 117 117 130 136 131 119 108 95 80 63 46 32 23 16
321 190 193 180 178 184 184 182 181 179 178 176 174 172 169 166 166 170 170 162 157 151 143 143 148 143 136 128 122 135 138 134 128 121 115 110 96 81 62 46 33 24 21
77 162 149 174 174 168 172 175 178 177 179 176 174 173 167 160 159 165 165 157 152 149 147 141 138 138 131 136 139 135 132 129 129 123 116 105 91 73 55 41 31 26 16
117 130 141 143 155 165 152 146 153 169 166 175 169 167 152 150 146 151 149 146 146 144 143 140 137 136 137 138 138 136 134 133 127 122 115 105 89 67 52 36 28 22 10
121 127 132 146 139 142 147 133 131 126 131 140 141 146 137 140 145 145 143 140 143 144 139 137 139 142 139 139 139 138 136 134 131 125 115 102 85 64 46 33 24 16 8
130 132 136 136 139 138 136 134 130 128 125 124 133 134 134 137 138 134 133 136 135 142 142 140 141 142 139 141 141 141 141 137 133 130 121 106 82 57 39 26 19 12 4
125 127 134 138 137 134 133 133 129 128 127 126 129 131 137 137 134 136 140 139 138 138 140 141 142 142 143 146 145 145 143 141 139 133 120 97 67 48 28 20 10 6 7
125 132 138 137 137 136 134 132 130 129 128 133 134 133 133 134 138 138 141 140 141 141 142 144 143 143 143 144 144 145 143 143 136 123 107 83 46 26 11 5 359 357 353
121 128 134 136 136 135 136 136 137 136 134 132 128 132 139 141 139 139 139 138 140 142 143 144 143 142 144 147 153 154 151 146 143 132 110 42 6 355 350 358 352 347 349
120 126 129 130 133 134 134 135 134 132 129 128 130 135 141 141 141 140 141 140 141 144 146 148 148 147 153 161 162 160 158 157 160 184 259 305 316 331 342 344 344 343 344
119 124 126 127 129 132 131 129 128 125 130 133 135 138 143 142 141 141 142 144 147 149 149 148 152 157 164 168 170 173 183 204 221 233 266 289 305 314 324 332 336 337 336
116 120 123 126 129 129 129 128 132 137 139 138 137 139 142 144 144 145 144 144 146 146 146 151 165 168 171 179 193 211 224 234 244 256 268 278 289 301 311 321 326 327 331
120 125 126 125 130 133 136 138 139 140 140 141 142 143 143 144 143 142 143 144 144 146 152 168 171 178 192 209 219 235 245 252 261 267 271 279 284 292 303 311 312 316 322
124 128 132 138 142 144 143 143 143 144 143 144 144 144 142 143 142 142 144 145 147 156 164 171 177 188 207 228 241 248 253 259 266 274 281 284 289 293 298 300 302 308 315